Regional Weather Roundup
Issued by NWS

Home | Current Version | Previous Version | Graphics & Text | Print | Product List | Glossary Off
Versions: 1 2 3 4 5 6 7 8 9 10 11 12 13 14 15 16 17 18 19 20 21 22 23 24 25 26 27 28 29 30 31 32 33 34 35 36 37 38 39 40 41 42 43 44 45 46 47 48 49 50

000
ASUS43 KBIS 191231
RWRND
NORTH DAKOTA REGIONAL WEATHER ROUNDUP
NATIONAL WEATHER SERVICE EASTERN NORTH DAKOTA/GRAND FORKS ND
700 AM CDT THU APR 19 2018

  NOTE: "FAIR" INDICATES FEW OR NO CLOUDS BELOW 12,000 FEET WITH NO
  SIGNIFICANT WEATHER AND/OR OBSTRUCTIONS TO VISIBILITY.

NDZ001>003-009>011-017-191300-
...NORTHWEST NORTH DAKOTA...

CITY           SKY/WX    TMP DP  RH WIND       PRES   REMARKS
WILLISTON      FOG       34  33  96 N5        30.38R VSB 1/2 WCI  30
6HR MIN TEMP:  33; 6HR MAX TEMP:  34;

MINOT          CLOUDY    35  33  92 W8        30.39R FOG     WCI  29
MINOT AFB      CLOUDY    34  33  99 W8        30.38R FOG     WCI  27
6HR MIN TEMP:  29; 6HR MAX TEMP:  36;

$$

NDZ018>021-031>035-040>046-191300-
...SOUTHWEST NORTH DAKOTA...

CITY           SKY/WX    TMP DP  RH WIND       PRES   REMARKS
BISMARCK       FAIR      25  25 100 CALM      30.40R FOG
DICKINSON      FOG       23  21  92 SE5       30.33R VSB<1/4 WCI  17
GARRISON         N/A     33  32  96 N10       30.38S WCI  25
HETTINGER      FAIR      22  20  92 CALM      30.35R
$$

NDZ004>008-012>016-024-026-027-054-191300-
...NORTHEAST NORTH DAKOTA...

CITY           SKY/WX    TMP DP  RH WIND       PRES   REMARKS
GRAND FORKS    MOCLDY    28  27  96 S5        30.36R WCI  23
GRAND FORKS AF FAIR      28  27  96 W3        30.37R
DEVILS LAKE    FAIR      27  26  96 W7        30.38R WCI  19
$$

NDZ022-023-025-028>030-036>039-047>053-191300-
...SOUTHEAST NORTH DAKOTA...

CITY           SKY/WX    TMP DP  RH WIND       PRES   REMARKS
JAMESTOWN      FAIR      27  26  96 CALM      30.37R
FARGO          FAIR      29  28  96 CALM      30.37R
WAHPETON       FAIR      30  28  93 SW5       30.40R WCI  25
$$




USA.gov is the U.S. government's official web portal to all federal, state and local government web resources and services.